Regional Weather Roundup
Issued by NWS

Home | Current Version | Previous Version | Text Only | Print | Product List | Glossary On
Versions: 1 2 3 4 5 6 7 8 9 10 11 12 13 14 15 16 17 18 19 20 21 22 23 24 25 26 27 28 29 30 31 32 33 34 35 36 37 38 39 40 41 42 43 44 45 46 47 48 49 50
000
ASUS43 KDMX 300907
RWRIA

WEATHER ROUNDUP FOR IOWA
NATIONAL WEATHER SERVICE DES MOINES IA
400 AM CDT MON MAR 30 2015

NOTE: "FAIR" INDICATES FEW OR NO CLOUDS BELOW 12,000 FEET WITH NO
SIGNIFICANT WEATHER AND/OR OBSTRUCTIONS TO VISIBILITY.

* - THESE STATIONS ARE NOT NWS STATIONS...THUS NOT UNDER NWS
QUALITY CONTROL.  THEY ALSO DO NOT REPORT WEATHER SUCH
AS PRECIPITATION OR FOG.

IAZ001>003-012>014-020>022-031>034-043>046-301000-
   NORTHWEST IOWA

CITY           SKY/WX    TMP DP  RH WIND       PRES   REMARKS
CARROLL *      CLEAR     36  25  64 CALM      30.08F
CHEROKEE *     MOCLDY    30  27  86 CALM      30.06F
DENISON *      CLEAR     32  27  80 SE6       30.06F WCI  26
LE MARS *      CLEAR     32  23  69 S3        30.06S
ORANGE CITY *  CLEAR     37  21  52 S3        30.04F
SHELDON *      CLEAR     32  23  69 S6        30.03S WCI  26
SIOUX CITY     PTCLDY    29  22  75 SE3       30.08S
SPENCER        CLEAR     34  24  67 W5        30.04F WCI  30
STORM LAKE *   CLEAR     34  23  64 SW8       30.06F WCI  27
$$

IAZ055>058-069>071-079>083-090>094-301000-
   SOUTHWEST IOWA

CITY           SKY/WX    TMP DP  RH WIND       PRES   REMARKS
ATLANTIC *     CLEAR     28  23  80 CALM      30.12F
AUDUBON *      CLEAR     27  21  80 CALM      30.10F
CLARINDA *     CLEAR     28  27  93 CALM      30.16S
COUNCIL BLFS * CLEAR     39  25  56 SW6       30.10F WCI  35
CRESTON *      CLEAR     37  25  60 W8        30.13S WCI  31
HARLAN  *      CLEAR     28  25  86 CALM      30.13F
LAMONI         MOCLDY    40  26  57 W6        30.13R
RED OAK *      CLEAR     32  27  80 CALM      30.13F
SHENANDOAH *   CLEAR     32  27  80 CALM      30.13F
$$

IAZ047>049-059>061-072>074-084-301000-
   CENTRAL IOWA

CITY           SKY/WX    TMP DP  RH WIND       PRES   REMARKS
AMES           CLEAR     31  23  72 SW6       30.07S WCI  25
ANKENY *       CLEAR     34  25  69 CALM      30.09S
CHARITON *     PTCLDY    39  25  56 SW6       30.10F WCI  35
DES MOINES     PTCLDY    37  24  59 SW6       30.10S WCI  32
GRINNELL*      CLEAR     34  25  69 SW6       30.07S WCI  29
KNOXVILLE *    CLEAR     37  23  56 SW7       30.08S WCI  32
MARSHALLTOWN   CLEAR     32  24  72 W8        30.05S WCI  25
PELLA *        PTCLDY    39  30  70 SW6       30.09F WCI  35
PERRY *          N/A     34  27  75 SW12      30.09S WCI  25
$$

IAZ004>006-015-016-023>025-035-036-301000-
   NORTH CENTRAL IOWA

CITY           SKY/WX    TMP DP  RH WIND       PRES   REMARKS
ALGONA *       CLEAR     34  27  75 SW8       30.04F WCI  27
CLARION *      CLEAR     28  27  93 SW7       30.05S WCI  21
ESTHERVILLE    PTCLDY    33  24  69 SW9       30.01F WCI  25
FORT DODGE *   PTCLDY    32  21  64 CALM      30.07S
MASON CITY     CLEAR     36  27  69 W10       30.04R WCI  28
FOREST CITY *  CLEAR     32  27  80 CALM      30.02F
IOWA FALLS *     N/A     34  27  75 SW10      30.06S WCI  26
$$

IAZ007>011-017>019-026>030-037>042-050>054-066-301000-
   NORTHEAST IOWA

CITY           SKY/WX    TMP DP  RH WIND       PRES   REMARKS
CEDAR RAPIDS   CLEAR     34  26  72 W3        30.03F
CHARLES CITY * PTCLDY    34  28  80 W7        30.02S WCI  28
CLINTON *      CLEAR     28  25  86 W5        30.06S WCI  23
DECORAH *      CLEAR     36  30  80 W6        29.99S WCI  31
DUBUQUE        CLEAR     34  28  79 W6        30.01S WCI  29
MONTICELLO *   CLEAR     34  30  86 CALM      30.02F
OELWEIN *      CLEAR     34  28  80 W8        30.02S WCI  27
WATERLOO       CLEAR     30  25  81 CALM      30.03S
$$

IAZ064-065-067-068-078-301000-
   EAST CENTRAL IOWA

CITY           SKY/WX    TMP DP  RH WIND       PRES   REMARKS
DAVENPORT      CLEAR     31  25  78 W6        30.04F WCI  25
IOWA CITY      CLEAR     33  26  75 CALM      30.06F
MT. PLEASANT * CLEAR     34  25  69 W6        30.09S WCI  29
MUSCATINE *    CLEAR     37  28  70 CALM      30.06F
QUAD CITIES    CLEAR     37  28  70 W7        30.04F WCI  32
$$

IAZ062-063-075>077-085>089-095>099-301000-
   SOUTHEAST IOWA

CITY           SKY/WX    TMP DP  RH WIND       PRES   REMARKS
BURLINGTON     CLEAR     38  27  64 W6        30.08S WCI  33
FAIRFIELD *    CLEAR     37  25  60 W8        30.08F WCI  31
FORT MADISON * CLEAR     39  27  60 W6        30.10S WCI  35
KEOKUK *       CLEAR     41  27  56 SW6       30.10S
OSKALOOSA *      N/A     32  25  74 SW7       30.08F WCI  26
CENTERVILLE *  CLEAR     32  27  80 SW7       30.13S WCI  26
OTTUMWA        CLEAR     32  23  69 SW6       30.08F WCI  26
WASHINGTON *   CLEAR     36  28  75 W8        30.07S WCI  29
$$

ABBREVIATIONS USED IN REMARKS
   TC - TEMPERATURES IN CELSIUS
  WCI - WIND CHILL INDEX
   HX - HEAT INDEX
  VSB - VISIBILITY
$$



USA.gov is the U.S. government's official web portal to all federal, state and local government web resources and services.